Wind_Speed
18 18 19 18 18 18 19 19 18 18 18 18 18 17 17 17 17 17 17 16 16 17 17 16 16 16 16 16 16 16 16 16 16 15 16 16 16 16
18 18 18 18 18 18 18 18 18 18 18 17 17 17 18 17 17 17 17 17 16 16 16 15 16 16 16 16 16 16 16 15 15 16 16 16 16 17
19 19 19 18 18 18 18 18 18 18 18 18 17 17 18 18 18 17 16 16 17 16 16 15 15 15 15 15 15 15 15 15 16 16 16 16 17 17
19 19 19 19 18 18 17 17 17 17 18 18 18 18 18 18 18 17 16 16 16 16 16 16 16 16 16 16 16 17 16 16 16 16 17 17 17 18
20 20 19 18 18 17 18 18 18 18 18 18 18 18 18 18 18 18 17 17 17 17 17 17 17 17 17 17 17 17 17 17 17 17 18 18 18 19
19 19 19 18 18 18 18 19 20 20 19 19 19 19 18 19 19 18 18 17 18 18 18 18 18 18 18 18 18 18 18 18 18 18 19 19 19 20
20 19 19 19 19 19 19 20 20 19 19 19 19 18 19 19 18 18 18 17 17 17 18 18 18 18 19 19 19 19 20 20 20 20 20 20 20 20
21 20 20 19 20 20 20 20 19 19 19 19 19 19 19 19 19 19 19 18 18 18 18 18 19 19 19 19 20 20 21 21 21 21 21 21 21 21
22 21 21 20 20 20 20 21 21 21 20 20 20 20 20 20 20 19 19 19 18 18 18 18 18 19 19 19 20 20 21 21 21 22 22 22 22 21
22 22 22 22 22 22 22 22 22 21 21 21 21 21 21 21 21 20 20 19 19 19 20 19 19 19 19 19 20 20 20 20 21 22 22 22 22 22
23 23 23 23 23 23 23 22 22 22 22 22 22 22 22 21 21 21 20 20 20 20 20 20 20 20 20 20 21 22 21 21 21 21 22 22 22 23
25 25 25 25 25 25 24 23 23 23 24 23 23 23 23 22 22 22 22 22 21 22 22 22 22 22 22 22 22 22 23 22 22 22 23 23 23 23
27 26 26 26 26 26 25 25 25 25 25 25 25 24 24 24 23 23 23 23 23 23 23 23 23 24 24 23 23 23 24 24 24 23 23 23 23 23
28 28 28 28 28 27 27 27 26 26 26 26 26 25 25 24 24 24 24 24 24 24 24 24 24 25 25 25 24 24 24 25 24 24 24 24 24 24
30 30 30 30 30 29 29 29 29 29 28 27 27 27 26 26 26 26 25 25 25 25 25 25 26 26 26 27 26 25 25 26 26 26 26 27 27 26
31 32 32 32 32 31 31 31 30 30 29 29 29 28 27 27 27 27 27 26 26 26 26 26 27 27 28 28 28 28 27 27 28 28 28 28 28 28
32 32 32 33 33 33 33 33 32 31 31 30 30 29 29 28 28 28 28 28 28 28 28 28 28 28 28 29 29 29 29 29 29 29 30 30 30 30
33 34 34 33 34 34 34 34 33 32 31 31 31 30 30 30 29 29 29 29 30 30 30 30 30 30 30 30 30 31 31 31 31 31 31 31 31 31
34 34 34 34 34 34 34 34 34 33 32 32 32 32 32 31 31 31 31 31 31 31 31 31 31 32 31 31 31 32 32 32 33 32 32 32 32 32
34 33 33 33 33 33 34 34 34 34 33 33 33 32 32 32 32 32 32 32 32 32 32 32 32 32 32 32 32 32 32 32 33 33 33 33 33 33
34 34 34 33 33 33 33 34 34 34 34 34 33 33 33 33 34 34 34 34 34 34 34 33 32 33 33 33 33 33 33 33 33 33 33 34 34 35
34 34 34 34 34 34 34 34 34 34 35 35 34 34 34 34 35 35 35 35 35 34 34 34 34 34 34 34 33 33 33 33 33 34 35 35 36 36
34 34 34 33 34 34 34 34 34 34 35 35 36 35 35 35 35 35 35 35 36 35 35 35 35 35 35 35 34 34 34 34 34 35 36 36 37 37
Wind_Direction
290 288 287 286 286 286 287 288 288 288 288 289 289 289 289 289 289 288 285 282 281 278 277 273 270 270 269 268 268 269 271 273 275 274 276 276 275 271
289 289 287 287 287 287 287 287 288 289 289 289 289 289 288 288 289 288 285 282 284 281 277 273 272 271 272 269 268 268 271 273 275 276 276 276 275 272
287 286 286 287 288 288 288 287 287 288 290 291 290 290 289 288 288 288 287 284 282 280 276 274 272 271 272 272 269 270 272 273 275 274 275 276 275 272
285 286 286 286 286 286 286 287 287 287 288 289 290 291 288 286 286 287 287 285 282 282 279 274 272 272 273 272 271 270 271 273 274 274 276 276 274 272
286 286 285 283 283 284 285 286 286 286 286 286 288 291 289 285 284 283 282 281 279 279 278 276 273 272 273 273 273 272 271 273 274 275 276 276 276 274
286 285 284 283 283 284 285 287 288 286 286 287 288 288 289 286 283 282 279 280 279 277 278 279 276 273 272 274 272 272 273 275 274 274 275 276 277 275
284 282 282 281 282 283 285 287 287 286 285 286 287 287 288 287 283 281 279 279 279 278 277 278 277 274 273 273 274 275 274 274 275 275 274 275 276 275
280 280 280 281 281 282 285 287 287 285 285 285 286 287 287 286 283 280 279 277 277 277 277 277 276 274 273 273 273 274 273 274 274 274 274 274 274 274
278 278 279 279 281 282 284 286 286 285 285 285 286 286 286 286 282 279 278 277 276 276 276 277 278 276 273 273 273 273 273 273 272 272 273 273 272 273
276 276 275 276 279 282 284 286 286 285 285 285 286 284 284 283 281 278 277 277 276 276 277 277 277 278 277 276 275 275 277 278 275 273 273 274 273 273
274 274 274 275 278 281 283 284 284 283 282 283 285 284 283 282 280 277 276 277 276 275 277 279 279 278 278 277 279 277 279 280 277 275 275 276 274 273
274 272 274 276 278 280 281 282 283 283 283 283 282 283 282 282 280 278 276 276 276 275 276 278 279 278 278 278 279 279 279 279 279 277 277 276 275 274
274 272 273 276 278 280 280 281 282 282 282 283 281 280 280 279 279 279 276 276 276 277 276 277 278 278 277 277 278 278 279 279 278 277 277 277 276 274
272 272 273 275 278 280 279 280 280 280 282 283 282 280 278 279 278 278 276 276 276 277 276 278 279 278 277 275 276 277 277 275 276 277 277 278 278 276
272 272 273 275 277 278 279 279 279 281 281 281 280 278 278 278 277 276 275 276 275 276 277 277 277 277 277 276 275 274 274 274 275 277 277 277 277 277
274 273 273 274 275 276 277 278 279 281 281 280 279 277 275 276 275 275 274 274 276 276 276 276 276 276 276 276 275 275 274 273 272 274 275 276 277 277
276 275 274 274 274 276 277 277 278 279 279 279 278 275 274 274 274 274 274 274 275 276 276 277 276 276 276 275 275 275 275 274 274 274 275 276 276 276
275 275 275 274 275 275 275 275 276 278 279 278 276 273 272 273 273 272 273 275 276 276 275 276 276 275 275 275 274 274 275 274 273 273 275 275 275 276
274 275 275 274 275 275 275 274 274 276 276 277 276 273 272 273 273 272 272 274 276 276 276 276 275 275 274 274 275 275 275 274 274 273 274 274 275 275
275 275 275 275 275 275 275 274 274 274 275 276 275 273 273 273 273 273 273 273 274 275 275 275 275 275 274 274 274 275 276 276 275 275 274 273 274 275
276 275 275 275 275 276 276 276 275 274 274 275 275 274 272 272 273 273 273 274 274 274 274 274 274 275 275 274 274 275 275 276 277 277 276 275 274 275
276 275 275 274 275 276 276 277 276 275 274 274 274 274 273 273 273 273 273 274 275 275 274 273 273 274 274 275 275 275 275 275 276 277 276 276 275 275
277 276 275 274 275 275 276 276 276 275 275 275 274 273 274 273 273 273 273 273 274 274 273 273 273 273 274 274 274 274 275 276 277 278 277 277 276 275
Height
5804 5803 5803 5802 5801 5801 5800 5800 5800 5800 5799 5798 5798 5797 5796 5796 5795 5795 5794 5794 5794 5794 5794 5794 5794 5795 5795 5795 5796 5797 5797 5797 5797 5797 5797 5798 5798 5798
5800 5799 5798 5797 5796 5796 5795 5795 5795 5795 5794 5794 5793 5792 5792 5791 5791 5790 5789 5789 5789 5789 5789 5789 5789 5790 5790 5791 5791 5792 5792 5792 5793 5793 5793 5793 5793 5794
5794 5794 5793 5792 5791 5791 5790 5790 5790 5789 5789 5789 5788 5787 5787 5786 5785 5785 5784 5784 5784 5784 5784 5784 5785 5785 5785 5786 5787 5787 5788 5788 5788 5788 5788 5788 5788 5789
5789 5788 5787 5787 5786 5786 5785 5785 5784 5784 5784 5784 5783 5782 5781 5781 5781 5780 5780 5779 5779 5779 5779 5780 5780 5780 5781 5781 5782 5782 5783 5783 5783 5783 5784 5784 5784 5784
5783 5782 5782 5781 5781 5780 5780 5779 5779 5779 5778 5778 5778 5777 5776 5776 5775 5775 5775 5775 5774 5774 5774 5774 5775 5775 5776 5776 5776 5777 5778 5778 5778 5778 5778 5779 5779 5779
5777 5777 5776 5776 5776 5775 5775 5774 5773 5773 5773 5772 5772 5772 5771 5770 5770 5770 5770 5769 5769 5769 5769 5769 5769 5770 5770 5771 5771 5772 5772 5772 5772 5773 5773 5773 5773 5773
5771 5771 5771 5770 5770 5769 5769 5769 5768 5767 5767 5766 5766 5766 5765 5764 5764 5764 5764 5764 5763 5763 5764 5764 5764 5764 5765 5765 5765 5766 5766 5766 5767 5767 5767 5767 5767 5767
5766 5765 5765 5765 5764 5764 5763 5763 5762 5762 5761 5761 5760 5760 5759 5758 5758 5757 5757 5758 5758 5758 5758 5758 5758 5759 5759 5759 5759 5760 5760 5760 5760 5761 5761 5761 5761 5761
5759 5759 5759 5759 5758 5758 5757 5757 5756 5755 5755 5755 5754 5753 5753 5752 5752 5751 5751 5751 5752 5752 5752 5752 5753 5753 5753 5753 5753 5753 5753 5753 5754 5754 5754 5754 5755 5755
5753 5753 5753 5752 5752 5752 5751 5751 5750 5749 5749 5748 5748 5747 5746 5745 5745 5745 5745 5745 5746 5746 5746 5746 5746 5747 5747 5747 5747 5747 5747 5747 5747 5747 5747 5747 5748 5748
5747 5746 5746 5746 5746 5745 5744 5744 5743 5743 5742 5741 5741 5740 5739 5739 5738 5738 5739 5739 5739 5740 5740 5740 5740 5740 5740 5741 5740 5740 5740 5740 5740 5740 5740 5740 5741 5741
5739 5739 5739 5739 5738 5738 5737 5737 5736 5736 5735 5734 5734 5733 5732 5732 5731 5732 5732 5732 5733 5733 5733 5733 5733 5733 5734 5734 5734 5734 5733 5733 5733 5733 5733 5733 5733 5733
5731 5731 5731 5731 5730 5730 5730 5730 5729 5728 5728 5727 5726 5726 5725 5725 5725 5725 5725 5725 5725 5726 5726 5726 5726 5726 5727 5727 5727 5727 5726 5726 5726 5726 5726 5726 5726 5726
5723 5723 5723 5722 5722 5722 5722 5721 5721 5720 5720 5719 5718 5718 5718 5718 5717 5717 5717 5717 5717 5718 5718 5718 5718 5718 5719 5719 5719 5719 5719 5719 5719 5718 5718 5718 5718 5718
5714 5714 5714 5713 5713 5713 5713 5713 5712 5712 5711 5711 5710 5710 5710 5709 5709 5709 5709 5709 5709 5710 5710 5710 5710 5710 5710 5711 5711 5711 5711 5711 5710 5710 5710 5710 5710 5710
5704 5704 5704 5704 5704 5704 5704 5703 5703 5703 5702 5702 5701 5701 5701 5701 5701 5701 5701 5702 5702 5702 5702 5701 5702 5702 5702 5702 5702 5702 5702 5702 5702 5701 5701 5701 5701 5701
5694 5694 5694 5694 5694 5694 5694 5693 5693 5693 5692 5692 5692 5692 5692 5692 5692 5692 5693 5693 5693 5693 5693 5693 5693 5693 5693 5693 5693 5693 5692 5692 5692 5692 5692 5692 5692 5691
5684 5684 5684 5684 5684 5684 5683 5683 5683 5683 5683 5682 5682 5683 5683 5683 5683 5683 5683 5684 5684 5684 5684 5684 5684 5683 5683 5683 5683 5683 5682 5682 5682 5682 5682 5682 5682 5682
5673 5673 5673 5673 5673 5673 5673 5673 5673 5672 5672 5672 5672 5672 5673 5673 5673 5673 5674 5674 5674 5674 5674 5674 5673 5673 5673 5673 5673 5673 5672 5672 5671 5671 5671 5671 5671 5671
5662 5662 5662 5662 5662 5662 5662 5662 5662 5662 5662 5662 5662 5662 5662 5662 5663 5663 5663 5663 5664 5664 5664 5663 5663 5663 5663 5663 5663 5663 5662 5661 5661 5661 5661 5660 5660 5660
5651 5651 5651 5651 5651 5651 5651 5651 5651 5651 5651 5651 5651 5651 5651 5652 5652 5652 5652 5653 5653 5653 5653 5653 5653 5652 5652 5652 5652 5652 5652 5651 5650 5650 5649 5649 5649 5649
5640 5640 5640 5640 5640 5640 5640 5640 5640 5640 5640 5640 5640 5640 5640 5640 5641 5641 5641 5641 5641 5641 5642 5642 5642 5641 5641 5641 5641 5641 5641 5640 5640 5639 5638 5638 5637 5637
5629 5628 5628 5629 5629 5629 5629 5629 5629 5629 5629 5629 5629 5629 5629 5629 5629 5630 5630 5630 5630 5630 5630 5630 5630 5630 5630 5630 5629 5629 5629 5629 5628 5628 5627 5626 5625 5625